Погода в Акуше

Россия / Республика Дагестан     42°16′34″N   47°20′23″E
темп.,
°C
ветер,
м/с
пор.,
м/с
влажн.,
%
обл.,
%
осадки,
мм/ч
давл.,
гПа
погр.,
м
5 марта, пт
пт500:00−6юз124867 0.0 102321
03:00−6юз114779 0.0 102221
06:00−6ююз224295 0.0 102021
09:00−2юз113884 0.0 1019112
12:00+1ссз22362 0.0 1017381
15:00+2ссз11371 0.0 1016421
18:00−2ююз11480 0.0 101921
21:00−3ююз22460 0.0 102124
6 марта, сб
сб600:00−3ююз22350 0.0 102024
03:00−3ююз23310 0.0 102123
06:00−3ююз22310 0.0 102122
09:00+1ююз22360 0.0 102088
12:00+6вюв12300 0.0 1017509
15:00+6ссв11370 0.0 1015519
18:000ююз33550 0.0 101427
21:00−2ююз334117 0.0 101441
7 марта, вс
вс700:00−2ююз3340100 0.0 101246
03:00−2юз3343100 0.0 101139
06:00−2ююз224896 0.0 101427
09:00−2ссз346498 0.0 1017367
12:00−1ссв327653 0.0 1018495
15:00−3всв338576 0.4 1019398
18:00−7в2388100 0.4 1021320
21:00−8всв228598 0.6 1024283
8 марта, пн
пн800:00−8вюв118196 0.0 1024215
03:00−7в117448 0.0 1024113
06:00−8в11790 0.0 102483
09:00−5всв11660 0.0 1023394
12:00−2всв21591 0.0 1020640
15:00−1св216525 0.0 1017511
18:00−4ссв118563 0.0 1018141
21:00−5сз229081 0.0 1018175
9 марта, вт
вт900:00−5ссз1191100 0.2 1018140
03:00−6ссз1193100 0.4 1018136
06:00−6ссв009097 0.1 1018123
09:00−4в117298 0.2 1017398
12:00−1ссв215233 0.0 1015764
15:000ссв225217 0.0 10141018
18:00−3зсз117822 0.0 101524
21:00−5юз225513 0.0 101674